sat.trackr.live / text

‹ back to catalog

STARLINK-30505

NORAD 57972 · 2023-151J

PAYLOAD ACTIVE UNKNOWN

§ Identity

Operator
Country
US
Launch date
2023-09-30
Launch site
AFETR
Launch vehicle
Mass (kg)
RCS (m²)

Purposes: comms

External: N2YO · Heavens-Above · Gunter

§ Orbital elements

Epoch: 2026-09-20T11:28:42.872736Z

Period
94.27 min
Inclination
43.0059°
Eccentricity
0.0001506
Mean motion
15.27584735 rev/d
Perigee alt
482.0 km
Apogee alt
484.1 km
Semi-major
6,861.2 km
B*
4.1514e-4
RAAN
316.2020°
Arg perigee
268.5705°
Mean anomaly
91.4974°
Rev number
16,555

§ Raw data

STARLINK-305051 57972U 23151J   26263.47827399  .00011181  00000+0  41514-3 0  99992 57972  43.0059 316.2020 0001506 268.5705  91.4974 15.27584735165555

JSON: /api/v1/satellites/57972 · /tle

For live sub-satellite position, see the globe view (requires WebGL).

§ Visibility from observer

Set your observer location to see the next 7 days of passes ≥ 10°. The values pass through the URL so the page stays shareable.

No JS? Fill the form by hand. The geolocation button needs JavaScript.